Regional Weather Roundup
Issued by NWS Burlington, VT

Home | Current Version | Previous Version | Text Only | Print | Product List | Glossary On
Versions: 1 2 3 4 5 6 7 8 9 10 11 12 13 14 15 16 17 18 19 20 21 22 23 24 25 26 27 28 29 30 31 32 33 34 35 36 37 38 39 40 41 42 43 44 45 46 47 48 49 50
000
ASUS41 KBTV 231130
RWRBTV
VERMONT REGIONAL WEATHER ROUNDUP
NATIONAL WEATHER SERVICE BURLINGTON VT
600 AM EST THU FEB 23 2017

NOTE: "FAIR" INDICATES FEW OR NO CLOUDS BELOW 12,000 FEET WITH NO
SIGNIFICANT WEATHER AND/OR OBSTRUCTIONS TO VISIBILITY.

* THESE REPORTS ARE NOT UNDER NWS QUALITY CONTROL AND/OR DO NOT
  REPORT WEATHER SUCH AS PRECIPITATION AND FOG.

VTZ001>019-231200-
_____VERMONT_____


CITY           SKY/WX    TMP DP  RH WIND       PRES   REMARKS
BURLINGTON     PTCLDY    47  37  68 SW3       29.76S
MONTPELIER     MOCLDY    30  29  96 N3        29.82F
MORRISVILLE    CLEAR     29  28  96 CALM      29.78F
ST. JOHNSBURY*   N/A     29  27  92 MISG      29.81F
LYNDONVILLE*   FAIR      29  28  96 NE3       29.81F
MIDDLEBURY*    CLOUDY    43  30  59 CALM      29.78F
RUTLAND*       CLOUDY    38  35  89 S7        29.81F
SPRINGFIELD    PTCLDY    27  24  89 E3        29.85F
HIGHGATE*      CLOUDY    47  37  69 S10G16    29.72F
NEWPORT*       FAIR      41  34  76 S10       29.77R
BENNINGTON     PTCLDY    36  32  85 CALM      29.82S
SUTTON*          N/A     36 N/A N/A MISG        N/A
ISLAND POND*     N/A     27 N/A N/A SW2         N/A
GALLUP MILLS*    N/A     28 N/A N/A MISG        N/A
UNION VILLAGE*   N/A     28 N/A N/A MISG        N/A
MT. MANSFIELD*   N/A     43 N/A N/A SW26        N/A

_____LAKE CHAMPLAIN_____


CITY           SKY/WX    TMP DP  RH WIND       PRES   REMARKS
BURTON ISLAND*   N/A     43  36  75 SW21        N/A
COLCHESTER RF*   N/A     43  37  81 S25         N/A
DIAMOND ISL*     N/A     41  36  81 SW5         N/A

$$

NYZ007-026>031-035-052-083-087-231200-
_____NORTHERN NEW YORK_____


CITY           SKY/WX    TMP DP  RH WIND       PRES   REMARKS
PLATTSBURGH    CLOUDY    33  30  88 CALM      29.74S
SARANAC LAKE   CLOUDY    36  34  92 CALM      29.72S
MASSENA        CLOUDY    39  35  86 CALM      29.69F
OGDENSBURG*    CLOUDY    50  45  84 S6        29.66F
POTSDAM*       CLOUDY    54  50  87 S6        29.67F
STARK FALLS*     N/A     45 N/A N/A SE10        N/A
WATERTOWN      CLOUDY    55  45  68 S8G17     29.69F
FT DRUM        CLOUDY    48  43  81 SE9       29.70S
ALBANY         MOCLDY    43  36  76 S3        29.83S
GLENS FALLS    CLOUDY    36  31  82 CALM      29.82F

$$
NHZ002-005-011-231200-
_____NEW HAMPSHIRE_____


CITY           SKY/WX    TMP DP  RH WIND       PRES   REMARKS
LEBANON        CLOUDY    31  29  92 CALM      29.84S
KEENE          MOCLDY    31  30  96 SE3       29.87S
MT WASHINGTON  FOG       34  34 100 W43         N/A  VSB 0   WCI  18
PLYMOUTH       MOCLDY    27  27  98 CALM      29.86S
WHITEFIELD     CLOUDY    30  26  85 CALM      29.80F

$$

_____REGIONAL QUEBEC LOCATIONS_____


CITY           SKY/WX    TMP DP  RH WIND       PRES   REMARKS
MONTREAL       CLOUDY    36  32  87 NE6       29.68F WCI  31
QUEBEC CITY    LGT RAIN  34  30  86 NE6       29.71F WCI  29
SHERBROOKE     CLOUDY    32  30  93 E2        29.73F

_____REGIONAL ONTARIO LOCATIONS_____


CITY           SKY/WX    TMP DP  RH WIND       PRES   REMARKS
OTTAWA         CLOUDY    41  37  87 CALM      29.65F

______KEY______
VSB  - VISIBILITY IN MILES
WCI  - WIND CHILL INDEX
HX   - HEAT INDEX
$$
NNNN




USA.gov is the U.S. government's official web portal to all federal, state and local government web resources and services.